User: anonymous   Login
Location: Clatteringshaws Loch
(55.0508°N, 4.2860°W)
Time: 01:53:57
(UTC+01:00)
Language:

Cosmos 2221 Rocket - Orbit

View from above orbital plane
View from above orbital plane
View from above satellite
View from above satellite

Ground track
Ground track

The orbit data is extracted from the following two-line orbital elements,

1 22237U 92080B   17084.83063152 +.00000053 +00000-0 +40608-5 0  9994
2 22237 082.5147 195.2585 0021140 116.4201 001.2520 14.78307449311038
Epoch (UTC): 25 March 2017 19:56:06
Eccentricity: 0.0021140
inclination: 82.5147°
perigee height: 620 km
apogee height: 649 km
right ascension of ascending node: 195.2585°
argument of perigee: 116.4201°
revolutions per day: 14.78307449
mean anomaly at epoch: 1.2520°
orbit number at epoch: 31103

The dashed part of the orbit path shows where the satellite is in the earth's shadow,  

DLR